Weather History for CYXX - October, 2012

Change the Weather History Date:

Tuesday, October 23, 2012

  Actual Average Record
Temperature  
Mean Temperature 42 °F -  
Max Temperature 45 °F 51 °F 68 °F (2007)
Min Temperature 40 °F 37 °F 34 °F (2013)
Degree Days  
Heating Degree Days 22    
Moisture  
Dew Point 38 °F    
Average Humidity 85    
Maximum Humidity 100    
Minimum Humidity 71    
Precipitation  
Precipitation 0.20 in 0.27 in - ()
Sea Level Pressure  
Sea Level Pressure 29.83 in    
Wind  
Wind Speed 5 mph ()    
Max Wind Speed 14 mph    
Max Gust Speed 21 mph    
Visibility 12.0 miles    
Events Rain    
Averages and records for this station are not official NWS values.
T = Trace of Precipitation, MM = Missing Value Source: Averaged Metar Reports

Daily Weather History Graph

Daily Weather History Graph

Search for Another Location

Airport or City:

Trip Planner

Search our weather history database for the weather conditions in past years. The results will help you decide how hot, cold, wet, or windy it might be!

Date:

Astronomy

Oct. 23, 2012 Rise Set
Actual Time 7:43 AM PDT 6:03 PM PDT
Civil Twilight 7:10 AM PDT 6:35 PM PDT
Nautical Twilight 6:33 AM PDT 7:12 PM PDT
Astronomical Twilight 5:57 AM PDT 7:49 PM PDT
Moon 3:16 PM PDT (10/23) 1:11 AM PDT (10/23)
Length of Visible Light 11h 24m
Length of Day
10h 19m
Waxing Gibbous, 67% of the Moon is Illuminated
Oct 23
Waxing Gibbous
Oct 29
Full
Nov 6
Last Quarter
Nov 13
New
Nov 20
First Quarter

Hourly Weather History & Observations

Time (PDT) Temp. Windchill Dew Point Humidity Pressure Visibility Wind Dir Wind Speed Gust Speed Precip Events Conditions
12:00 AM 42.8 °F 40.1 °F 41.0 °F 93% 29.67 in 15.0 mi WSW 4.6 mph - N/A Rain Light Rain Showers
1:00 AM 42.8 °F 40.1 °F 41.0 °F 93% 29.68 in 10.0 mi SW 4.6 mph - N/A Rain Light Rain Showers
2:00 AM 42.8 °F - 41.0 °F 93% 29.69 in 10.0 mi Calm Calm - N/A Rain Light Rain Showers
3:00 AM 41.0 °F - 41.0 °F 100% 29.70 in 8.0 mi Calm Calm - N/A Rain Light Rain Showers
4:00 AM 41.0 °F - 41.0 °F 100% 29.72 in 10.0 mi Calm Calm - N/A Rain Light Rain Showers
5:00 AM 42 °F - 39 °F 84% 29.73 in 10 mi ENE 3.5 mph - - Rain Light Rain
5:00 AM 41.0 °F 39.0 °F 39.2 °F 93% 29.73 in 10.0 mi East 3.5 mph - N/A Rain Light Rain
6:00 AM 41.0 °F 34.7 °F 37.4 °F 87% 29.75 in 10.0 mi ENE 10.4 mph - N/A Rain Light Rain
7:00 AM 41.0 °F 35.8 °F 37.4 °F 87% 29.77 in 10.0 mi East 8.1 mph - N/A Rain Light Rain
8:00 AM 41.0 °F 35.2 °F 37.4 °F 87% 29.79 in 6.0 mi ENE 9.2 mph - N/A Rain Light Rain
9:00 AM 41.0 °F 35.2 °F 37.4 °F 87% 29.81 in 10.0 mi ENE 9.2 mph - N/A Rain Light Rain
10:00 AM 41.0 °F 34.7 °F 37.4 °F 87% 29.83 in 10.0 mi ENE 10.4 mph - N/A Rain Light Rain
11:00 AM 41 °F - 38 °F 86% 29.84 in 15 mi ENE 6.9 mph - - Rain Light Rain
11:00 AM 41.0 °F 37.1 °F 37.4 °F 87% 29.84 in 15.0 mi ENE 5.8 mph - N/A Rain Light Rain
11:49 AM 41.0 °F 35.8 °F 37.4 °F 87% 29.85 in 15.0 mi ENE 8.1 mph - N/A   Overcast
12:00 PM 42.8 °F 37.5 °F 39.2 °F 87% 29.85 in 10.0 mi ENE 9.2 mph - N/A Rain Light Rain Showers
12:36 PM 42.8 °F 38.6 °F 39.2 °F 87% 29.86 in 8.0 mi ENE 6.9 mph - N/A   Overcast
12:43 PM 42.8 °F 39.3 °F 39.2 °F 87% 29.86 in 8.0 mi East 5.8 mph - N/A Rain Light Rain Showers
1:00 PM 42.8 °F 38.0 °F 37.4 °F 81% 29.86 in 15.0 mi ENE 8.1 mph - N/A   Overcast
1:43 PM 42.8 °F 39.3 °F 37.4 °F 81% 29.87 in 15.0 mi NE 5.8 mph - N/A   Mostly Cloudy
2:00 PM 44.6 °F 40.7 °F 39.2 °F 81% 29.87 in 15.0 mi NE 6.9 mph - N/A   Mostly Cloudy
3:00 PM 44.6 °F 40.2 °F 39.2 °F 81% 29.87 in 15.0 mi NNE 8.1 mph - N/A   Mostly Cloudy
4:00 PM 46.4 °F 42.9 °F 39.2 °F 76% 29.87 in 15.0 mi NNE 6.9 mph - N/A   Mostly Cloudy
5:00 PM 45 °F - 39 °F 71% 29.88 in 19 mi NE 4.6 mph - -   Partly Cloudy
5:00 PM 44.6 °F 42.2 °F 39.2 °F 81% 29.88 in 20.0 mi ENE 4.6 mph - N/A   Mostly Cloudy
6:00 PM 44.6 °F 40.2 °F 37.4 °F 76% 29.88 in 25.0 mi ENE 8.1 mph - N/A   Mostly Cloudy
7:00 PM 42.8 °F 40.1 °F 35.6 °F 76% 29.89 in 10.0 mi ENE 4.6 mph - N/A   Mostly Cloudy
7:35 PM 44.6 °F 38.1 °F 35.6 °F 71% 29.91 in 10.0 mi SE 13.8 mph 20.7 mph N/A Rain Light Rain Showers
8:00 PM 42.8 °F 38.0 °F 37.4 °F 81% 29.90 in 10.0 mi ENE 8.1 mph - N/A Rain Light Rain Showers
9:00 PM 42.8 °F 38.6 °F 37.4 °F 81% 29.91 in 10.0 mi ENE 6.9 mph - N/A Rain Light Rain Showers
10:00 PM 42.8 °F 37.5 °F 35.6 °F 76% 29.91 in 10.0 mi NE 9.2 mph - N/A   Mostly Cloudy
11:00 PM 41 °F - 37 °F 81% 29.91 in 15 mi NNE 6.9 mph - -   Partly Cloudy
11:00 PM 41.0 °F 37.1 °F 37.4 °F 87% 29.91 in 15.0 mi NE 5.8 mph - N/A   Mostly Cloudy